Weather History for Lincoln, IL

Change the Weather History Date:

Monday, July 8, 2013

  Actual Average (KSPI) Record (KSPI)
Temperature  
Mean Temperature 82 °F 76 °F  
Max Temperature 90 °F 87 °F 103 °F (1936)
Min Temperature 74 °F 66 °F 53 °F (1954)
Degree Days  
Heating Degree Days 0 0  
Month to date heating degree days 0  
Since 1 June heating degree days 15  
Since 1 July heating degree days 0  
Cooling Degree Days 17 11  
Month to date cooling degree days 88  
Year to date cooling degree days 432  
Since 1 June cooling degree days 328  
Growing Degree Days 32 (Base 50)    
Moisture  
Dew Point 71 °F    
Average Humidity 72    
Maximum Humidity 87    
Minimum Humidity 53    
Precipitation  
Precipitation 0.00 in 0.13 in 1.81 in (1888)
Month to date precipitation 1.04  
Year to date precipitation 19.51  
Snow  
Snow 0.00 in 0.00 in 0.00 in ()
Month to date snowfall 0.0  
Since 1 June snowfall 0.0  
Since 1 July snowfall 0.0  
Snow Depth -    
Sea Level Pressure  
Sea Level Pressure 30.01 in    
Wind  
Wind Speed 2 mph (SSW)    
Max Wind Speed 8 mph    
Max Gust Speed 17 mph    
Visibility 10 miles    
Events Rain , Thunderstorm    
T = Trace of Precipitation, MM = Missing Value Source: NWS Daily Summary

Daily Weather History Graph

Daily Weather History Graph

Search for Another Location

Airport:

Trip Planner

Search our weather history database for the weather conditions in past years. The results will help you decide how hot, cold, wet, or windy it might be!

Date:

Astronomy

Jul. 08, 2013 Rise Set
Actual Time 5:35 AM CDT 8:28 PM CDT
Civil Twilight 5:03 AM CDT 9:01 PM CDT
Nautical Twilight 4:22 AM CDT 9:42 PM CDT
Astronomical Twilight 3:35 AM CDT 10:29 PM CDT
Moon 6:05 AM CDT (7/8) 8:31 PM CDT (7/8)
Length of Visible Light 15h 57m
Length of Day
14h 52m
New Moon, 0% of the Moon is Illuminated
Jul 8
New Moon
Jul 15
First Quarter
Jul 22
Full
Jul 29
Last Quarter
Aug 6
New

Hourly Weather History & Observations

Time (CDT) Temp. Heat Index Dew Point Humidity Pressure Visibility Wind Dir Wind Speed Gust Speed Precip Events Conditions
12:15 AM 77.4 °F - 70.2 °F 78% 30.01 in 10.0 mi Calm Calm - N/A   Clear
12:35 AM 77.4 °F - 70.2 °F 78% 30.01 in 10.0 mi Calm Calm - N/A   Clear
12:55 AM 77.4 °F - 70.2 °F 78% 30.02 in 10.0 mi Calm Calm - N/A   Clear
1:15 AM 77.7 °F - 70.0 °F 77% 30.01 in 10.0 mi Calm Calm - N/A   Clear
1:35 AM 77.5 °F - 70.0 °F 77% 30.01 in 10.0 mi Calm Calm - N/A   Clear
1:55 AM 77.5 °F - 70.0 °F 77% 30.01 in 10.0 mi South 3.5 mph - N/A   Clear
2:15 AM 77.4 °F - 69.8 °F 77% 30.01 in 10.0 mi South 6.9 mph - N/A   Clear
2:35 AM 77.2 °F - 69.8 °F 78% 30.01 in 10.0 mi South 4.6 mph - N/A   Scattered Clouds
2:55 AM 77.0 °F - 69.6 °F 78% 30.00 in 10.0 mi SSW 3.5 mph - N/A   Scattered Clouds
3:15 AM 76.1 °F - 70.3 °F 82% 29.99 in 10.0 mi South 4.6 mph - N/A   Mostly Cloudy
3:35 AM 76.1 °F - 70.0 °F 81% 29.99 in 10.0 mi Calm Calm - N/A   Scattered Clouds
3:55 AM 75.6 °F - 70.0 °F 83% 29.99 in 10.0 mi South 3.5 mph - N/A   Clear
4:15 AM 75.2 °F - 69.8 °F 83% 30.00 in 10.0 mi South 3.5 mph - N/A   Clear
4:35 AM 75.2 °F - 69.6 °F 83% 30.00 in 10.0 mi Calm Calm - N/A   Scattered Clouds
4:55 AM 75.2 °F - 69.4 °F 82% 30.01 in 10.0 mi South 4.6 mph - N/A   Mostly Cloudy
5:15 AM 75.2 °F - 69.1 °F 81% 30.01 in 10.0 mi South 6.9 mph - N/A   Scattered Clouds
5:55 AM 75.7 °F - 68.9 °F 79% 30.02 in 10.0 mi Calm Calm - N/A   Mostly Cloudy
6:15 AM 75.7 °F - 68.9 °F 79% 30.03 in 10.0 mi Calm Calm - N/A   Overcast
6:35 AM 74.8 °F - 69.6 °F 84% 30.02 in 10.0 mi Calm Calm - N/A   Overcast
6:55 AM 75.2 °F - 69.8 °F 83% 30.02 in 10.0 mi South 3.5 mph - N/A   Mostly Cloudy
7:15 AM 75.4 °F - 69.8 °F 83% 30.02 in 10.0 mi Calm Calm - N/A   Clear
7:35 AM 76.3 °F - 69.8 °F 80% 30.03 in 10.0 mi Calm Calm - N/A Thunderstorm Clear
7:55 AM 77.4 °F - 69.6 °F 77% 30.04 in 10.0 mi Calm Calm - N/A   Scattered Clouds
8:15 AM 77.9 °F - 69.1 °F 74% 30.05 in 10.0 mi Calm Calm - N/A Rain Light Rain
8:35 AM 78.3 °F - 69.1 °F 73% 30.06 in 10.0 mi Calm Calm - N/A   Overcast
8:55 AM 79.3 °F - 69.3 °F 71% 30.05 in 10.0 mi Calm Calm - N/A   Mostly Cloudy
9:15 AM 79.7 °F - 69.3 °F 70% 30.05 in 10.0 mi Calm Calm - N/A   Mostly Cloudy
9:35 AM 80.1 °F 82.9 °F 69.1 °F 69% 30.05 in 10.0 mi Calm Calm - N/A   Scattered Clouds
9:55 AM 79.7 °F - 69.6 °F 71% 30.06 in 10.0 mi Calm Calm - N/A   Scattered Clouds
10:15 AM 79.7 °F - 70.3 °F 73% 30.07 in 10.0 mi Calm Calm - N/A Rain Light Rain
10:35 AM 79.7 °F - 70.0 °F 72% 30.08 in 10.0 mi Calm Calm - N/A Rain Light Rain
10:55 AM 79.2 °F - 70.5 °F 75% 30.07 in 10.0 mi SSW 3.5 mph - N/A Rain Light Rain
11:15 AM 79.7 °F - 70.2 °F 73% 30.07 in 10.0 mi Calm Calm - N/A   Scattered Clouds
11:35 AM 80.2 °F 83.6 °F 70.3 °F 72% 30.06 in 10.0 mi SSW 4.6 mph - N/A   Clear
11:55 AM 82.6 °F 87.1 °F 70.9 °F 68% 30.05 in 10.0 mi SSW 6.9 mph - N/A   Clear
12:15 PM 82.6 °F 87.1 °F 70.9 °F 68% 30.03 in 10.0 mi SSW 6.9 mph 17.3 mph N/A   Clear
12:35 PM 83.8 °F 88.1 °F 69.8 °F 63% 30.03 in 10.0 mi SW 6.9 mph - N/A   Scattered Clouds
12:55 PM 82.8 °F 86.2 °F 69.1 °F 63% 30.02 in 10.0 mi South 8.1 mph - N/A   Scattered Clouds
1:15 PM 83.5 °F 88.2 °F 71.2 °F 66% 30.01 in 10.0 mi SSW 8.1 mph - N/A Rain Light Rain
1:35 PM 84.4 °F 88.7 °F 70.2 °F 62% 30.01 in 10.0 mi SW 8.1 mph 16.1 mph N/A   Clear
1:55 PM 85.5 °F 89.1 °F 68.9 °F 57% 30.00 in 10.0 mi SSW 8.1 mph - N/A   Clear
2:15 PM 87.3 °F 90.9 °F 68.4 °F 53% 29.99 in 10.0 mi SSW 6.9 mph - N/A   Clear
2:35 PM 85.8 °F 88.5 °F 66.9 °F 53% 30.00 in 10.0 mi SSW 6.9 mph - N/A   Clear
2:55 PM 85.1 °F 87.9 °F 67.5 °F 55% 30.00 in 10.0 mi SSW 5.8 mph 16.1 mph N/A   Clear
3:15 PM 86.5 °F 91.4 °F 70.2 °F 58% 30.00 in 10.0 mi SSW 8.1 mph - N/A   Clear
3:35 PM 84.9 °F 90.1 °F 71.1 °F 63% 30.00 in 10.0 mi SSW 6.9 mph - N/A   Clear
3:55 PM 86.9 °F 94.1 °F 73.0 °F 63% 29.99 in 10.0 mi SSW 8.1 mph 17.3 mph N/A   Clear
4:15 PM 87.8 °F 96.1 °F 73.6 °F 63% 29.99 in 10.0 mi SSW 3.5 mph - N/A   Clear
4:35 PM 89.1 °F 97.5 °F 73.8 °F 60% 29.99 in 10.0 mi South 5.8 mph - N/A   Clear
4:55 PM 88.3 °F 97.4 °F 74.5 °F 63% 29.99 in 10.0 mi Calm Calm - N/A   Clear
5:15 PM 90.0 °F 98.5 °F 73.6 °F 58% 29.98 in 10.0 mi SW 6.9 mph - N/A   Scattered Clouds
5:35 PM 89.6 °F 97.2 °F 72.7 °F 57% 29.98 in 10.0 mi SW 6.9 mph - N/A   Scattered Clouds
5:55 PM 89.2 °F 97.4 °F 73.4 °F 59% 29.97 in 10.0 mi SW 4.6 mph - N/A   Scattered Clouds
6:15 PM 89.6 °F 97.7 °F 73.2 °F 58% 29.97 in 10.0 mi SW 3.5 mph - N/A   Scattered Clouds
6:35 PM 88.7 °F 96.2 °F 72.7 °F 59% 29.97 in 10.0 mi Calm Calm - N/A   Clear
6:55 PM 88.2 °F 96.0 °F 73.0 °F 61% 29.97 in 10.0 mi Calm Calm - N/A   Clear
7:15 PM 86.4 °F 93.8 °F 73.4 °F 65% 29.98 in 10.0 mi Calm Calm - N/A   Clear
7:35 PM 85.3 °F 93.0 °F 73.9 °F 69% 29.97 in 10.0 mi Calm Calm - N/A   Clear
7:55 PM 84.4 °F 91.7 °F 73.9 °F 71% 29.97 in 10.0 mi Calm Calm - N/A   Clear
8:15 PM 83.8 °F 90.8 °F 73.8 °F 72% 29.98 in 10.0 mi Calm Calm - N/A   Clear
8:35 PM 83.3 °F 89.9 °F 73.9 °F 73% 29.98 in 10.0 mi Calm Calm - N/A   Clear
8:55 PM 82.8 °F 89.2 °F 73.9 °F 75% 29.98 in 10.0 mi Calm Calm - N/A   Clear
9:15 PM 82.2 °F 88.3 °F 74.1 °F 76% 29.99 in 10.0 mi Calm Calm - N/A   Clear
9:35 PM 81.3 °F 86.8 °F 73.9 °F 78% 29.99 in 10.0 mi Calm Calm - N/A   Clear
9:55 PM 78.8 °F - 73.8 °F 84% 30.00 in 10.0 mi Calm Calm - N/A   Clear
10:15 PM 78.3 °F - 73.9 °F 87% 30.00 in 10.0 mi Calm Calm - N/A   Clear
10:35 PM 78.1 °F - 73.9 °F 87% 30.00 in 10.0 mi Calm Calm - N/A   Clear
10:55 PM 78.3 °F - 73.6 °F 85% 30.00 in 10.0 mi Calm Calm - N/A   Clear
11:15 PM 79.3 °F - 73.4 °F 82% 30.00 in 10.0 mi Calm Calm - N/A   Clear
11:35 PM 78.4 °F - 73.4 °F 84% 30.00 in 10.0 mi Calm Calm - N/A   Scattered Clouds
11:55 PM 77.9 °F - 73.6 °F 86% 30.01 in 10.0 mi Calm Calm - N/A   Scattered Clouds